Time,TemperatureF,DewpointF,PressureIn,WindDirection,WindDirectionDegrees,WindSpeedMPH,WindSpeedGustMPH,Humidity,HourlyPrecipIn,Conditions,Clouds,dailyrainin,SoftwareType,DateUTC
2013-03-01 00:01:00,33.4,14.9,30.22,North,359,0.0,0.0,46,0.00,,---,0.00,VWS V14.01,2013-03-01 07:01:00,
2013-03-01 00:06:00,33.4,14.9,30.22,North,359,0.0,0.0,46,0.00,,---,0.00,VWS V14.01,2013-03-01 07:06:00,
2013-03-01 00:11:00,33.5,15.0,30.22,North,1,0.0,0.0,46,0.00,,---,0.00,VWS V14.01,2013-03-01 07:11:00,
2013-03-01 00:16:00,33.7,15.2,30.22,North,354,0.0,0.0,46,0.00,,---,0.00,VWS V14.01,2013-03-01 07:16:00,
2013-03-01 00:21:00,33.7,15.4,30.23,North,354,0.0,0.0,46,0.00,,---,0.00,VWS V14.01,2013-03-01 07:21:00,
2013-03-01 00:26:00,33.6,15.6,30.23,North,354,0.0,0.0,47,0.00,,---,0.00,VWS V14.01,2013-03-01 07:26:00,
2013-03-01 00:31:00,33.6,15.4,30.23,North,354,0.0,0.0,47,0.00,,---,0.00,VWS V14.01,2013-03-01 07:31:00,
2013-03-01 00:36:00,33.7,15.7,30.23,NNW,339,5.4,8.0,47,0.00,,---,0.00,VWS V14.01,2013-03-01 07:36:00,
2013-03-01 00:41:00,33.9,15.6,30.23,NW,326,0.0,2.4,46,0.00,,---,0.00,VWS V14.01,2013-03-01 07:41:00,
2013-03-01 00:46:00,34.2,15.7,30.23,NW,316,4.3,4.4,46,0.00,,---,0.00,VWS V14.01,2013-03-01 07:46:00,
2013-03-01 00:51:00,34.2,15.8,30.23,North,350,0.0,0.0,46,0.00,,---,0.00,VWS V14.01,2013-03-01 07:51:00,
2013-03-01 00:56:00,34.4,16.1,30.23,North,8,0.0,0.0,47,0.00,,---,0.00,VWS V14.01,2013-03-01 07:56:00,
2013-03-01 01:01:00,34.4,16.3,30.23,North,8,0.0,0.0,47,0.00,,---,0.00,VWS V14.01,2013-03-01 08:01:00,
2013-03-01 01:06:00,34.4,16.5,30.23,NNW,339,0.0,0.0,48,0.00,,---,0.00,VWS V14.01,2013-03-01 08:06:00,
2013-03-01 01:12:00,34.3,16.5,30.23,NNW,339,0.0,0.0,48,0.00,,---,0.00,VWS V14.01,2013-03-01 08:12:00,
2013-03-01 01:17:00,34.2,16.6,30.23,NNW,339,0.0,0.0,48,0.00,,---,0.00,VWS V14.01,2013-03-01 08:17:00,
2013-03-01 01:22:00,34.1,16.7,30.23,NNW,339,0.0,0.0,48,0.00,,---,0.00,VWS V14.01,2013-03-01 08:22:00,
2013-03-01 01:27:00,33.9,16.8,30.23,NNW,339,0.0,0.0,49,0.00,,---,0.00,VWS V14.01,2013-03-01 08:27:00,
2013-03-01 01:32:00,33.8,16.7,30.23,NNW,339,0.0,0.0,49,0.00,,---,0.00,VWS V14.01,2013-03-01 08:32:00,
2013-03-01 01:37:00,33.6,16.8,30.23,NNW,339,0.0,0.0,50,0.00,,---,0.00,VWS V14.01,2013-03-01 08:37:00,
2013-03-01 01:42:00,33.6,16.8,30.23,NNW,339,0.0,0.0,50,0.00,,---,0.00,VWS V14.01,2013-03-01 08:42:00,
2013-03-01 01:47:00,33.5,16.7,30.24,NNW,339,0.0,0.0,50,0.00,,---,0.00,VWS V14.01,2013-03-01 08:47:00,
2013-03-01 01:52:00,33.2,17.0,30.24,NNW,339,0.0,0.0,51,0.00,,---,0.00,VWS V14.01,2013-03-01 08:52:00,
2013-03-01 01:57:00,32.8,17.6,30.24,NNW,339,0.0,0.0,53,0.00,,---,0.00,VWS V14.01,2013-03-01 08:57:00,
2013-03-01 02:02:00,32.3,17.8,30.24,NNW,339,0.0,0.0,55,0.00,,---,0.00,VWS V14.01,2013-03-01 09:02:00,
2013-03-01 02:07:00,32.0,18.1,30.24,NNW,339,0.0,0.0,56,0.00,,---,0.00,VWS V14.01,2013-03-01 09:07:00,
2013-03-01 02:12:00,31.5,18.2,30.24,NNW,339,0.0,0.0,57,0.00,,---,0.00,VWS V14.01,2013-03-01 09:12:00,
2013-03-01 02:17:00,31.3,18.5,30.24,NNW,339,0.0,0.0,59,0.00,,---,0.00,VWS V14.01,2013-03-01 09:17:00,
2013-03-01 02:22:00,30.8,18.5,30.24,NNW,339,0.0,0.0,60,0.00,,---,0.00,VWS V14.01,2013-03-01 09:22:00,
2013-03-01 02:27:00,30.6,18.8,30.25,NNW,339,0.0,0.0,61,0.00,,---,0.00,VWS V14.01,2013-03-01 09:27:00,
2013-03-01 02:32:00,30.2,18.4,30.25,NNW,339,0.0,0.0,61,0.00,,---,0.00,VWS V14.01,2013-03-01 09:32:00,
2013-03-01 02:37:00,30.4,18.2,30.25,SSE,166,2.9,4.7,60,0.00,,---,0.00,VWS V14.01,2013-03-01 09:37:00,
2013-03-01 02:42:00,30.3,18.0,30.26,SSE,160,0.0,0.0,60,0.00,,---,0.00,VWS V14.01,2013-03-01 09:42:00,
2013-03-01 02:47:00,30.0,18.0,30.26,SSE,160,0.0,2.4,60,0.00,,---,0.00,VWS V14.01,2013-03-01 09:47:00,
2013-03-01 02:52:00,29.9,18.1,30.26,South,174,0.0,0.0,61,0.00,,---,0.00,VWS V14.01,2013-03-01 09:52:00,
2013-03-01 02:57:00,29.6,18.2,30.26,South,174,0.0,0.0,62,0.00,,---,0.00,VWS V14.01,2013-03-01 09:57:00,
2013-03-01 03:02:00,29.5,18.4,30.26,South,174,0.0,0.0,63,0.00,,---,0.00,VWS V14.01,2013-03-01 10:02:00,
2013-03-01 03:07:00,29.3,18.4,30.26,South,174,0.0,0.0,63,0.00,,---,0.00,VWS V14.01,2013-03-01 10:07:00,
2013-03-01 03:12:00,29.2,18.5,30.26,South,174,0.0,0.0,64,0.00,,---,0.00,VWS V14.01,2013-03-01 10:12:00,
2013-03-01 03:17:00,29.1,18.6,30.25,South,174,0.0,0.0,64,0.00,,---,0.00,VWS V14.01,2013-03-01 10:17:00,
2013-03-01 03:22:00,29.0,18.6,30.25,South,174,0.0,0.0,65,0.00,,---,0.00,VWS V14.01,2013-03-01 10:22:00,
2013-03-01 03:27:00,28.9,18.7,30.25,South,174,0.0,0.0,65,0.00,,---,0.00,VWS V14.01,2013-03-01 10:27:00,
2013-03-01 03:32:00,28.8,18.9,30.25,South,174,0.0,0.0,66,0.00,,---,0.00,VWS V14.01,2013-03-01 10:32:00,
2013-03-01 03:37:00,28.8,18.9,30.26,South,174,0.0,0.0,66,0.00,,---,0.00,VWS V14.01,2013-03-01 10:37:00,
2013-03-01 03:42:00,28.8,18.9,30.26,South,174,0.0,0.0,66,0.00,,---,0.00,VWS V14.01,2013-03-01 10:42:00,
2013-03-01 03:47:00,28.7,18.9,30.26,South,174,0.0,0.0,66,0.00,,---,0.00,VWS V14.01,2013-03-01 10:47:00,
2013-03-01 03:52:00,28.8,19.2,30.26,South,174,0.0,0.0,67,0.00,,---,0.00,VWS V14.01,2013-03-01 10:52:00,
2013-03-01 03:57:00,28.7,19.2,30.26,South,174,0.0,0.0,67,0.00,,---,0.00,VWS V14.01,2013-03-01 10:57:00,
2013-03-01 04:02:00,28.7,19.2,30.26,South,174,0.0,0.0,67,0.00,,---,0.00,VWS V14.01,2013-03-01 11:02:00,
2013-03-01 04:07:00,28.7,19.2,30.26,South,174,0.0,0.0,67,0.00,,---,0.00,VWS V14.01,2013-03-01 11:07:00,
2013-03-01 04:12:00,28.6,19.3,30.27,South,174,0.0,0.0,68,0.00,,---,0.00,VWS V14.01,2013-03-01 11:12:00,
2013-03-01 04:17:00,28.5,19.2,30.27,South,174,0.0,0.0,68,0.00,,---,0.00,VWS V14.01,2013-03-01 11:17:00,
2013-03-01 04:22:00,28.4,19.4,30.27,South,174,0.0,0.0,68,0.00,,---,0.00,VWS V14.01,2013-03-01 11:22:00,
2013-03-01 04:27:00,28.3,19.5,30.28,South,174,0.0,0.0,69,0.00,,---,0.00,VWS V14.01,2013-03-01 11:27:00,
2013-03-01 04:32:00,28.1,19.5,30.28,South,174,0.0,0.0,70,0.00,,---,0.00,VWS V14.01,2013-03-01 11:32:00,
2013-03-01 04:37:00,28.0,19.5,30.28,South,174,0.0,0.0,70,0.00,,---,0.00,VWS V14.01,2013-03-01 11:37:00,
2013-03-01 04:42:00,27.8,19.3,30.28,South,174,0.0,0.0,70,0.00,,---,0.00,VWS V14.01,2013-03-01 11:42:00,
2013-03-01 04:47:00,27.6,19.3,30.28,South,174,0.0,0.0,71,0.00,,---,0.00,VWS V14.01,2013-03-01 11:47:00,
2013-03-01 04:53:00,27.5,19.5,30.28,South,174,0.0,0.0,72,0.00,,---,0.00,VWS V14.01,2013-03-01 11:53:00,
2013-03-01 04:58:00,27.3,19.4,30.28,South,174,0.0,0.0,72,0.00,,---,0.00,VWS V14.01,2013-03-01 11:58:00,
2013-03-01 05:03:00,27.3,19.5,30.28,South,174,0.0,0.0,72,0.00,,---,0.00,VWS V14.01,2013-03-01 12:03:00,
2013-03-01 05:08:00,27.2,19.7,30.28,South,174,0.0,0.0,73,0.00,,---,0.00,VWS V14.01,2013-03-01 12:08:00,
2013-03-01 05:13:00,27.2,19.7,30.28,South,174,0.0,0.0,73,0.00,,---,0.00,VWS V14.01,2013-03-01 12:13:00,
2013-03-01 05:18:00,27.1,19.6,30.28,South,174,0.0,0.0,73,0.00,,---,0.00,VWS V14.01,2013-03-01 12:18:00,
2013-03-01 05:23:00,26.9,19.5,30.28,South,174,0.0,0.0,73,0.00,,---,0.00,VWS V14.01,2013-03-01 12:23:00,
2013-03-01 05:28:00,26.7,19.6,30.28,South,174,0.0,0.0,74,0.00,,---,0.00,VWS V14.01,2013-03-01 12:28:00,
2013-03-01 05:33:00,26.6,19.6,30.28,South,174,0.0,0.0,74,0.00,,---,0.00,VWS V14.01,2013-03-01 12:33:00,
2013-03-01 05:38:00,26.4,19.5,30.28,South,174,0.0,0.0,75,0.00,,---,0.00,VWS V14.01,2013-03-01 12:38:00,
2013-03-01 05:43:00,26.4,19.7,30.28,South,174,0.0,0.0,75,0.00,,---,0.00,VWS V14.01,2013-03-01 12:43:00,
2013-03-01 05:48:00,26.1,19.5,30.28,South,174,0.0,0.0,76,0.00,,---,0.00,VWS V14.01,2013-03-01 12:48:00,
2013-03-01 05:53:00,25.9,19.3,30.28,South,174,0.0,0.0,76,0.00,,---,0.00,VWS V14.01,2013-03-01 12:53:00,
2013-03-01 05:58:00,25.8,19.3,30.28,South,174,0.0,0.0,76,0.00,,---,0.00,VWS V14.01,2013-03-01 12:58:00,
2013-03-01 06:03:00,25.6,19.2,30.29,South,174,0.0,0.0,76,0.00,,---,0.00,VWS V14.01,2013-03-01 13:03:00,
2013-03-01 06:08:00,25.4,19.0,30.29,South,174,0.0,0.0,76,0.00,,---,0.00,VWS V14.01,2013-03-01 13:08:00,
2013-03-01 06:13:00,25.3,19.0,30.29,South,174,0.0,0.0,77,0.00,,---,0.00,VWS V14.01,2013-03-01 13:13:00,
2013-03-01 06:18:00,25.1,18.8,30.28,South,174,0.0,0.0,77,0.00,,---,0.00,VWS V14.01,2013-03-01 13:18:00,
2013-03-01 06:23:00,25.0,18.9,30.29,South,174,0.0,0.0,77,0.00,,---,0.00,VWS V14.01,2013-03-01 13:23:00,
2013-03-01 06:28:00,25.0,19.0,30.29,South,174,0.0,0.0,78,0.00,,---,0.00,VWS V14.01,2013-03-01 13:28:00,
2013-03-01 06:33:00,24.9,18.9,30.29,South,174,0.0,0.0,78,0.00,,---,0.00,VWS V14.01,2013-03-01 13:33:00,
2013-03-01 06:38:00,24.9,18.9,30.29,South,174,0.0,0.0,78,0.00,,---,0.00,VWS V14.01,2013-03-01 13:38:00,
2013-03-01 06:43:00,24.9,18.9,30.29,South,174,0.0,0.0,78,0.00,,---,0.00,VWS V14.01,2013-03-01 13:43:00,
2013-03-01 06:48:00,24.9,18.9,30.29,South,174,0.0,0.0,78,0.00,,---,0.00,VWS V14.01,2013-03-01 13:48:00,
2013-03-01 06:53:00,25.0,18.9,30.30,South,174,0.0,0.0,77,0.00,,---,0.00,VWS V14.01,2013-03-01 13:53:00,
2013-03-01 06:58:00,25.2,19.1,30.29,South,174,0.0,0.0,77,0.00,,---,0.00,VWS V14.01,2013-03-01 13:58:00,
2013-03-01 07:03:00,25.6,19.4,30.29,South,174,0.0,0.0,77,0.00,,---,0.00,VWS V14.01,2013-03-01 14:03:00,
2013-03-01 07:08:00,26.0,19.7,30.30,South,174,0.0,0.0,77,0.00,,---,0.00,VWS V14.01,2013-03-01 14:08:00,
2013-03-01 07:13:00,26.5,20.0,30.30,South,174,0.0,0.0,76,0.00,,---,0.00,VWS V14.01,2013-03-01 14:13:00,
2013-03-01 07:18:00,26.9,20.1,30.30,South,174,0.0,0.0,75,0.00,,---,0.00,VWS V14.01,2013-03-01 14:18:00,
2013-03-01 07:23:00,27.4,20.3,30.30,South,174,0.0,0.0,74,0.00,,---,0.00,VWS V14.01,2013-03-01 14:23:00,
2013-03-01 07:28:00,27.9,20.5,30.30,South,174,0.0,0.0,73,0.00,,---,0.00,VWS V14.01,2013-03-01 14:28:00,
2013-03-01 07:33:00,28.3,20.5,30.30,WNW,283,0.0,0.0,72,0.00,,---,0.00,VWS V14.01,2013-03-01 14:33:00,
2013-03-01 07:38:00,28.7,20.6,30.30,SW,214,0.0,0.0,71,0.00,,---,0.00,VWS V14.01,2013-03-01 14:38:00,
2013-03-01 07:43:00,29.0,20.6,30.30,SW,217,3.0,3.0,70,0.00,,---,0.00,VWS V14.01,2013-03-01 14:43:00,
2013-03-01 07:48:00,29.4,20.8,30.30,SSW,200,0.0,0.0,70,0.00,,---,0.00,VWS V14.01,2013-03-01 14:48:00,
2013-03-01 07:53:00,29.8,20.8,30.31,SSW,200,0.0,0.0,69,0.00,,---,0.00,VWS V14.01,2013-03-01 14:53:00,
2013-03-01 07:58:00,30.2,20.8,30.31,SSW,200,6.2,8.9,68,0.00,,---,0.00,VWS V14.01,2013-03-01 14:58:00,
2013-03-01 08:03:00,30.5,20.8,30.31,SSW,202,5.1,6.0,67,0.00,,---,0.00,VWS V14.01,2013-03-01 15:03:00,
2013-03-01 08:08:00,31.0,21.1,30.31,SSE,167,3.0,4.8,66,0.00,,---,0.00,VWS V14.01,2013-03-01 15:08:00,
2013-03-01 08:13:00,31.3,20.7,30.32,SSW,193,0.0,4.4,64,0.00,,---,0.00,VWS V14.01,2013-03-01 15:13:00,
2013-03-01 08:18:00,31.4,20.7,30.32,SSW,205,7.0,9.4,64,0.00,,---,0.00,VWS V14.01,2013-03-01 15:18:00,
2013-03-01 08:23:00,31.7,20.8,30.32,WSW,253,4.4,5.4,64,0.00,,---,0.00,VWS V14.01,2013-03-01 15:23:00,
2013-03-01 08:28:00,32.0,21.0,30.32,WSW,255,0.0,0.0,63,0.00,,---,0.00,VWS V14.01,2013-03-01 15:28:00,
2013-03-01 08:33:00,32.2,20.5,30.32,SW,236,5.2,7.0,62,0.00,,---,0.00,VWS V14.01,2013-03-01 15:33:00,
2013-03-01 08:38:00,32.4,20.6,30.32,SW,236,5.9,8.7,61,0.00,,---,0.00,VWS V14.01,2013-03-01 15:38:00,
2013-03-01 08:43:00,32.8,20.8,30.32,SW,219,3.4,4.2,61,0.00,,---,0.00,VWS V14.01,2013-03-01 15:43:00,
2013-03-01 08:48:00,33.3,21.0,30.32,SW,235,0.0,2.8,60,0.00,,---,0.00,VWS V14.01,2013-03-01 15:48:00,
2013-03-01 08:53:00,34.0,21.1,30.32,SSW,198,0.0,0.0,59,0.00,,---,0.00,VWS V14.01,2013-03-01 15:53:00,
2013-03-01 08:58:00,34.7,21.2,30.32,WSW,240,0.0,0.0,57,0.00,,---,0.00,VWS V14.01,2013-03-01 15:58:00,
2013-03-01 09:03:00,35.4,21.5,30.32,South,181,0.0,0.0,56,0.00,,---,0.00,VWS V14.01,2013-03-01 16:03:00,
2013-03-01 09:08:00,36.0,21.3,30.31,South,190,6.3,8.8,55,0.00,,---,0.00,VWS V14.01,2013-03-01 16:08:00,
2013-03-01 09:13:00,36.4,21.1,30.31,SSW,207,5.8,6.9,53,0.00,,---,0.00,VWS V14.01,2013-03-01 16:13:00,
2013-03-01 09:18:00,36.8,20.9,30.31,SW,232,4.3,8.0,52,0.00,,---,0.00,VWS V14.01,2013-03-01 16:18:00,
2013-03-01 09:23:00,36.9,20.4,30.31,SSW,198,6.1,6.1,51,0.00,,---,0.00,VWS V14.01,2013-03-01 16:23:00,
2013-03-01 09:28:00,37.0,20.0,30.31,WSW,240,4.6,6.8,50,0.00,,---,0.00,VWS V14.01,2013-03-01 16:28:00,
2013-03-01 09:33:00,37.4,20.7,30.31,South,174,0.0,4.5,50,0.00,,---,0.00,VWS V14.01,2013-03-01 16:33:00,
2013-03-01 09:38:00,37.5,20.3,30.30,SW,215,0.0,0.0,49,0.00,,---,0.00,VWS V14.01,2013-03-01 16:38:00,
2013-03-01 09:43:00,37.8,20.5,30.31,West,263,5.7,5.7,49,0.00,,---,0.00,VWS V14.01,2013-03-01 16:43:00,
2013-03-01 09:48:00,38.2,20.9,30.31,SW,226,0.0,5.3,49,0.00,,---,0.00,VWS V14.01,2013-03-01 16:48:00,
2013-03-01 09:53:00,38.8,20.7,30.30,SSW,202,0.0,0.0,48,0.00,,---,0.00,VWS V14.01,2013-03-01 16:53:00,
2013-03-01 09:58:00,39.3,20.8,30.31,SW,219,0.0,2.7,47,0.00,,---,0.00,VWS V14.01,2013-03-01 16:58:00,
2013-03-01 10:03:00,39.9,21.0,30.30,SSW,202,0.0,0.0,46,0.00,,---,0.00,VWS V14.01,2013-03-01 17:03:00,
2013-03-01 10:08:00,40.4,20.7,30.31,SE,131,0.0,0.0,45,0.00,,---,0.00,VWS V14.01,2013-03-01 17:08:00,
2013-03-01 10:13:00,40.5,19.9,30.30,SSE,158,0.0,0.0,43,0.00,,---,0.00,VWS V14.01,2013-03-01 17:13:00,
2013-03-01 10:18:00,40.6,20.0,30.30,South,176,0.0,2.7,43,0.00,,---,0.00,VWS V14.01,2013-03-01 17:18:00,
2013-03-01 10:24:00,40.5,19.2,30.30,South,170,0.0,0.0,42,0.00,,---,0.00,VWS V14.01,2013-03-01 17:24:00,
2013-03-01 10:29:00,40.7,19.6,30.30,SE,138,0.0,0.0,42,0.00,,---,0.00,VWS V14.01,2013-03-01 17:29:00,
2013-03-01 10:34:00,41.1,20.0,30.30,SE,138,0.0,0.0,42,0.00,,---,0.00,VWS V14.01,2013-03-01 17:34:00,
2013-03-01 10:39:00,41.5,19.6,30.30,South,174,4.9,7.3,41,0.00,,---,0.00,VWS V14.01,2013-03-01 17:39:00,
2013-03-01 10:44:00,41.6,19.7,30.30,South,172,0.0,0.0,41,0.00,,---,0.00,VWS V14.01,2013-03-01 17:44:00,
2013-03-01 10:49:00,41.9,20.0,30.30,SSE,162,0.0,0.0,41,0.00,,---,0.00,VWS V14.01,2013-03-01 17:49:00,
2013-03-01 10:54:00,42.4,20.2,30.30,South,179,0.0,2.7,41,0.00,,---,0.00,VWS V14.01,2013-03-01 17:54:00,
2013-03-01 10:59:00,42.7,20.0,30.31,SSW,194,0.0,0.0,40,0.00,,---,0.00,VWS V14.01,2013-03-01 17:59:00,
2013-03-01 11:04:00,43.2,19.7,30.31,South,176,0.0,0.0,39,0.00,,---,0.00,VWS V14.01,2013-03-01 18:04:00,
2013-03-01 11:09:00,43.5,20.1,30.31,SE,139,0.0,0.0,39,0.00,,---,0.00,VWS V14.01,2013-03-01 18:09:00,
2013-03-01 11:41:00,42.9,18.8,30.31,SE,127,0.0,5.0,38,0.03,,---,0.03,VWS V14.01,2013-03-01 18:41:00,
2013-03-01 11:46:00,43.0,19.0,30.31,East,82,0.0,0.0,38,0.03,,---,0.03,VWS V14.01,2013-03-01 18:46:00,
2013-03-01 11:51:00,43.4,20.0,30.31,SE,134,4.5,4.7,39,0.03,,---,0.03,VWS V14.01,2013-03-01 18:51:00,
2013-03-01 11:56:00,43.4,19.2,30.31,SE,128,0.0,0.0,38,0.03,,---,0.03,VWS V14.01,2013-03-01 18:56:00,
2013-03-01 12:01:00,43.0,19.0,30.31,SSW,194,0.0,8.9,38,0.03,,---,0.03,VWS V14.01,2013-03-01 19:01:00,
2013-03-01 12:06:00,43.1,19.2,30.31,SSE,160,0.0,0.0,38,0.03,,---,0.03,VWS V14.01,2013-03-01 19:06:00,
2013-03-01 12:11:00,43.8,20.1,30.30,SSE,165,0.0,0.0,38,0.03,,---,0.03,VWS V14.01,2013-03-01 19:11:00,
2013-03-01 12:16:00,44.4,20.2,30.30,SSE,156,0.0,0.0,38,0.03,,---,0.03,VWS V14.01,2013-03-01 19:16:00,
2013-03-01 12:21:00,44.7,19.9,30.30,East,100,0.0,0.0,37,0.03,,---,0.03,VWS V14.01,2013-03-01 19:21:00,
2013-03-01 12:26:00,45.2,20.4,30.30,SSE,153,0.0,0.0,37,0.03,,---,0.03,VWS V14.01,2013-03-01 19:26:00,
2013-03-01 12:31:00,45.7,20.9,30.29,East,94,0.0,0.0,37,0.03,,---,0.03,VWS V14.01,2013-03-01 19:31:00,
2013-03-01 12:36:00,46.2,21.0,30.28,SW,221,6.0,6.0,36,0.03,,---,0.03,VWS V14.01,2013-03-01 19:36:00,
2013-03-01 12:42:00,46.6,20.5,30.28,SSE,148,0.0,4.5,35,0.03,,---,0.03,VWS V14.01,2013-03-01 19:42:00,
2013-03-01 12:46:00,47.0,20.5,30.28,SSE,152,4.5,6.0,34,0.03,,---,0.03,VWS V14.01,2013-03-01 19:46:00,
2013-03-01 12:51:00,46.9,20.8,30.27,South,172,0.0,0.0,35,0.04,,---,0.04,VWS V14.01,2013-03-01 19:51:00,
2013-03-01 12:57:00,47.2,20.3,30.28,SSW,194,0.0,2.8,34,0.04,,---,0.04,VWS V14.01,2013-03-01 19:57:00,
2013-03-01 13:02:00,47.0,19.9,30.27,SE,135,0.0,0.0,34,0.04,,---,0.04,VWS V14.01,2013-03-01 20:02:00,
2013-03-01 13:06:00,46.9,19.5,30.27,SSE,159,0.0,0.0,33,0.04,,---,0.04,VWS V14.01,2013-03-01 20:06:00,
2013-03-01 13:12:00,47.2,19.9,30.27,SE,138,0.0,0.0,34,0.04,,---,0.04,VWS V14.01,2013-03-01 20:12:00,
2013-03-01 13:17:00,47.5,20.5,30.27,SSW,208,0.0,0.0,34,0.04,,---,0.04,VWS V14.01,2013-03-01 20:17:00,
2013-03-01 13:22:00,48.0,20.4,30.26,SSW,208,0.0,0.0,33,0.04,,---,0.04,VWS V14.01,2013-03-01 20:22:00,
2013-03-01 13:27:00,48.1,20.1,30.26,South,172,0.0,0.0,33,0.04,,---,0.04,VWS V14.01,2013-03-01 20:27:00,
2013-03-01 13:32:00,47.9,19.6,30.26,SE,136,0.0,0.0,32,0.04,,---,0.04,VWS V14.01,2013-03-01 20:32:00,
2013-03-01 13:37:00,47.9,20.1,30.26,SE,136,0.0,0.0,33,0.04,,---,0.04,VWS V14.01,2013-03-01 20:37:00,
2013-03-01 13:42:00,48.0,20.0,30.26,SE,136,0.0,0.0,33,0.04,,---,0.04,VWS V14.01,2013-03-01 20:42:00,
2013-03-01 13:47:00,48.0,19.4,30.26,East,93,0.0,0.0,32,0.04,,---,0.04,VWS V14.01,2013-03-01 20:47:00,
2013-03-01 13:52:00,47.3,18.9,30.25,SE,127,0.0,0.0,32,0.04,,---,0.04,VWS V14.01,2013-03-01 20:52:00,
2013-03-01 13:57:00,47.5,19.9,30.25,SE,127,0.0,0.0,33,0.04,,---,0.04,VWS V14.01,2013-03-01 20:57:00,
2013-03-01 14:02:00,47.7,19.2,30.25,ESE,111,0.0,0.0,32,0.04,,---,0.04,VWS V14.01,2013-03-01 21:02:00,
2013-03-01 14:07:00,47.9,19.8,30.25,ESE,111,0.0,0.0,32,0.04,,---,0.04,VWS V14.01,2013-03-01 21:07:00,
2013-03-01 14:12:00,48.2,19.7,30.25,ESE,111,0.0,0.0,32,0.04,,---,0.04,VWS V14.01,2013-03-01 21:12:00,
2013-03-01 14:17:00,48.2,18.9,30.25,ESE,115,0.0,3.2,31,0.04,,---,0.04,VWS V14.01,2013-03-01 21:17:00,
2013-03-01 14:22:00,48.1,18.8,30.25,ESE,117,0.0,0.0,31,0.04,,---,0.04,VWS V14.01,2013-03-01 21:22:00,
2013-03-01 14:27:00,48.0,19.4,30.24,ESE,117,0.0,0.0,32,0.04,,---,0.04,VWS V14.01,2013-03-01 21:27:00,
2013-03-01 14:32:00,48.5,19.1,30.25,SE,146,0.0,0.0,31,0.04,,---,0.04,VWS V14.01,2013-03-01 21:32:00,
2013-03-01 14:37:00,48.6,18.7,30.25,ESE,122,5.3,5.3,30,0.04,,---,0.04,VWS V14.01,2013-03-01 21:37:00,
2013-03-01 14:42:00,48.5,19.1,30.25,ESE,105,0.0,0.0,31,0.04,,---,0.04,VWS V14.01,2013-03-01 21:42:00,
2013-03-01 14:47:00,48.6,18.4,30.25,ESE,105,0.0,0.0,30,0.04,,---,0.04,VWS V14.01,2013-03-01 21:47:00,
2013-03-01 14:52:00,48.7,18.8,30.25,SE,131,0.0,0.0,30,0.04,,---,0.04,VWS V14.01,2013-03-01 21:52:00,
2013-03-01 14:57:00,48.8,18.5,30.25,SE,131,0.0,0.0,30,0.04,,---,0.04,VWS V14.01,2013-03-01 21:57:00,
2013-03-01 15:02:00,48.7,18.0,30.25,ENE,65,0.0,0.0,29,0.04,,---,0.04,VWS V14.01,2013-03-01 22:02:00,
2013-03-01 15:07:00,48.6,18.4,30.25,SE,139,0.0,0.0,30,0.04,,---,0.04,VWS V14.01,2013-03-01 22:07:00,
2013-03-01 15:12:00,48.5,18.3,30.25,SE,139,0.0,0.0,30,0.04,,---,0.04,VWS V14.01,2013-03-01 22:12:00,
2013-03-01 15:17:00,48.8,18.9,30.25,SE,142,0.0,5.0,30,0.04,,---,0.04,VWS V14.01,2013-03-01 22:17:00,
2013-03-01 15:22:00,49.1,19.7,30.24,SE,142,0.0,0.0,31,0.04,,---,0.04,VWS V14.01,2013-03-01 22:22:00,
2013-03-01 15:27:00,49.2,19.4,30.24,East,101,6.0,6.2,30,0.04,,---,0.04,VWS V14.01,2013-03-01 22:27:00,
2013-03-01 15:32:00,48.9,18.5,30.25,ESE,112,0.0,0.0,30,0.04,,---,0.04,VWS V14.01,2013-03-01 22:32:00,
2013-03-01 15:38:00,48.7,18.9,30.25,ESE,112,0.0,0.0,30,0.04,,---,0.04,VWS V14.01,2013-03-01 22:38:00,
2013-03-01 15:43:00,48.4,18.6,30.25,ESE,112,0.0,0.0,30,0.04,,---,0.04,VWS V14.01,2013-03-01 22:43:00,
2013-03-01 15:48:00,48.1,18.5,30.25,ESE,112,0.0,0.0,30,0.04,,---,0.04,VWS V14.01,2013-03-01 22:48:00,
2013-03-01 15:53:00,47.8,19.0,30.25,East,93,0.0,0.0,31,0.04,,---,0.04,VWS V14.01,2013-03-01 22:53:00,
2013-03-01 15:58:00,47.5,18.9,30.26,NE,41,0.0,0.0,32,0.04,,---,0.04,VWS V14.01,2013-03-01 22:58:00,
2013-03-01 16:03:00,47.3,19.2,30.26,NNE,17,3.5,6.8,32,0.04,,---,0.04,VWS V14.01,2013-03-01 23:03:00,
2013-03-01 16:08:00,47.0,19.0,30.27,ESE,105,5.7,7.3,32,0.04,,---,0.04,VWS V14.01,2013-03-01 23:08:00,
2013-03-01 16:13:00,46.9,18.8,30.27,SE,125,0.0,0.0,32,0.04,,---,0.04,VWS V14.01,2013-03-01 23:13:00,
2013-03-01 16:18:00,46.8,18.9,30.27,SE,136,4.9,7.0,32,0.04,,---,0.04,VWS V14.01,2013-03-01 23:18:00,
2013-03-01 16:23:00,46.6,19.0,30.27,ESE,104,0.0,0.0,33,0.04,,---,0.04,VWS V14.01,2013-03-01 23:23:00,
2013-03-01 16:28:00,46.4,19.4,30.27,ESE,107,4.9,7.4,34,0.04,,---,0.04,VWS V14.01,2013-03-01 23:28:00,
2013-03-01 16:33:00,46.2,19.3,30.27,SE,143,0.0,0.0,34,0.04,,---,0.04,VWS V14.01,2013-03-01 23:33:00,
2013-03-01 16:38:00,46.0,19.2,30.27,ESE,121,0.0,0.0,34,0.04,,---,0.04,VWS V14.01,2013-03-01 23:38:00,
2013-03-01 16:43:00,45.8,19.5,30.27,ESE,121,0.0,0.0,35,0.04,,---,0.04,VWS V14.01,2013-03-01 23:43:00,
2013-03-01 16:48:00,45.8,19.9,30.28,ESE,121,0.0,0.0,35,0.04,,---,0.04,VWS V14.01,2013-03-01 23:48:00,
2013-03-01 16:54:00,45.8,20.1,30.28,ESE,121,0.0,0.0,36,0.04,,---,0.04,VWS V14.01,2013-03-01 23:54:00,
2013-03-01 16:59:00,45.5,20.2,30.28,ESE,121,0.0,0.0,36,0.04,,---,0.04,VWS V14.01,2013-03-01 23:59:00,
2013-03-01 17:04:00,45.1,19.4,30.28,ESE,107,0.0,0.0,36,0.04,,---,0.04,VWS V14.01,2013-03-02 00:04:00,
2013-03-01 17:09:00,44.7,19.1,30.29,SE,129,0.0,6.3,36,0.04,,---,0.04,VWS V14.01,2013-03-02 00:09:00,
2013-03-01 17:14:00,44.4,19.4,30.28,SE,129,0.0,0.0,36,0.04,,---,0.04,VWS V14.01,2013-03-02 00:14:00,
2013-03-01 17:19:00,44.2,19.3,30.29,ESE,120,0.0,0.0,37,0.04,,---,0.04,VWS V14.01,2013-03-02 00:19:00,
2013-03-01 17:24:00,44.0,19.1,30.30,ESE,120,0.0,0.0,36,0.04,,---,0.04,VWS V14.01,2013-03-02 00:24:00,
2013-03-01 17:29:00,43.8,19.0,30.30,ESE,120,0.0,0.0,37,0.04,,---,0.04,VWS V14.01,2013-03-02 00:29:00,
2013-03-01 17:34:00,43.6,19.3,30.30,ESE,120,0.0,0.0,37,0.04,,---,0.04,VWS V14.01,2013-03-02 00:34:00,
2013-03-01 17:39:00,43.4,20.0,30.30,ESE,120,0.0,0.0,39,0.04,,---,0.04,VWS V14.01,2013-03-02 00:39:00,
2013-03-01 17:44:00,43.2,20.0,30.30,ESE,120,0.0,0.0,39,0.04,,---,0.04,VWS V14.01,2013-03-02 00:44:00,
2013-03-01 17:49:00,43.0,20.3,30.30,ESE,120,0.0,0.0,40,0.04,,---,0.04,VWS V14.01,2013-03-02 00:49:00,
2013-03-01 17:54:00,42.8,20.2,30.31,ESE,120,0.0,0.0,40,0.04,,---,0.04,VWS V14.01,2013-03-02 00:54:00,
2013-03-01 17:59:00,42.6,20.3,30.31,ESE,120,0.0,0.0,41,0.04,,---,0.04,VWS V14.01,2013-03-02 00:59:00,
2013-03-01 18:04:00,42.4,20.8,30.31,ESE,120,0.0,0.0,42,0.04,,---,0.04,VWS V14.01,2013-03-02 01:04:00,
2013-03-01 18:09:00,42.1,20.7,30.31,ESE,120,0.0,0.0,42,0.04,,---,0.04,VWS V14.01,2013-03-02 01:09:00,
2013-03-01 18:14:00,41.9,20.8,30.31,ESE,120,0.0,0.0,43,0.04,,---,0.04,VWS V14.01,2013-03-02 01:14:00,
2013-03-01 18:19:00,41.7,20.8,30.31,ESE,120,0.0,0.0,43,0.04,,---,0.04,VWS V14.01,2013-03-02 01:19:00,
2013-03-01 18:24:00,41.6,20.9,30.31,ESE,120,0.0,0.0,43,0.04,,---,0.04,VWS V14.01,2013-03-02 01:24:00,
2013-03-01 18:29:00,41.5,21.4,30.31,ESE,120,0.0,0.0,44,0.04,,---,0.04,VWS V14.01,2013-03-02 01:29:00,
2013-03-01 18:34:00,41.4,21.9,30.31,ESE,120,0.0,0.0,45,0.04,,---,0.04,VWS V14.01,2013-03-02 01:34:00,
2013-03-01 18:39:00,41.3,22.0,30.32,ESE,120,0.0,0.0,46,0.04,,---,0.04,VWS V14.01,2013-03-02 01:39:00,
2013-03-01 18:44:00,41.2,22.4,30.32,ESE,120,0.0,0.0,47,0.04,,---,0.04,VWS V14.01,2013-03-02 01:44:00,
2013-03-01 18:49:00,41.0,22.4,30.32,ESE,120,0.0,0.0,47,0.04,,---,0.04,VWS V14.01,2013-03-02 01:49:00,
2013-03-01 18:54:00,40.9,22.4,30.32,ESE,120,0.0,0.0,47,0.04,,---,0.04,VWS V14.01,2013-03-02 01:54:00,
2013-03-01 18:59:00,40.8,22.8,30.32,ESE,120,0.0,0.0,48,0.04,,---,0.04,VWS V14.01,2013-03-02 01:59:00,
2013-03-01 19:04:00,40.7,23.5,30.32,ESE,120,0.0,0.0,50,0.04,,---,0.04,VWS V14.01,2013-03-02 02:04:00,
2013-03-01 19:09:00,40.6,24.0,30.32,ESE,120,0.0,0.0,51,0.04,,---,0.04,VWS V14.01,2013-03-02 02:09:00,
2013-03-01 19:14:00,40.3,23.6,30.32,ESE,120,0.0,0.0,51,0.04,,---,0.04,VWS V14.01,2013-03-02 02:14:00,
2013-03-01 19:19:00,40.0,23.8,30.32,ESE,120,0.0,0.0,52,0.04,,---,0.04,VWS V14.01,2013-03-02 02:19:00,
2013-03-01 19:24:00,39.8,24.8,30.32,ESE,120,0.0,0.0,54,0.04,,---,0.04,VWS V14.01,2013-03-02 02:24:00,
2013-03-01 19:29:00,39.6,24.7,30.32,ESE,120,0.0,0.0,55,0.04,,---,0.04,VWS V14.01,2013-03-02 02:29:00,
2013-03-01 19:34:00,39.4,24.3,30.33,ESE,120,0.0,0.0,54,0.04,,---,0.04,VWS V14.01,2013-03-02 02:34:00,
2013-03-01 19:39:00,39.4,24.6,30.32,ESE,120,0.0,0.0,55,0.04,,---,0.04,VWS V14.01,2013-03-02 02:39:00,
2013-03-01 19:44:00,39.3,24.3,30.33,ESE,120,0.0,0.0,55,0.04,,---,0.04,VWS V14.01,2013-03-02 02:44:00,
2013-03-01 19:49:00,39.3,24.4,30.33,ESE,120,0.0,0.0,55,0.04,,---,0.04,VWS V14.01,2013-03-02 02:49:00,
2013-03-01 19:54:00,39.2,24.3,30.33,ESE,120,0.0,0.0,55,0.04,,---,0.04,VWS V14.01,2013-03-02 02:54:00,
2013-03-01 19:59:00,39.1,24.4,30.33,ESE,120,0.0,0.0,55,0.04,,---,0.04,VWS V14.01,2013-03-02 02:59:00,
2013-03-01 20:04:00,38.9,24.3,30.33,ESE,120,0.0,0.0,56,0.04,,---,0.04,VWS V14.01,2013-03-02 03:04:00,
2013-03-01 20:09:00,38.7,24.2,30.33,ESE,120,0.0,0.0,56,0.04,,---,0.04,VWS V14.01,2013-03-02 03:09:00,
2013-03-01 20:14:00,38.5,24.3,30.33,ESE,120,0.0,0.0,56,0.04,,---,0.04,VWS V14.01,2013-03-02 03:14:00,
2013-03-01 20:19:00,38.4,24.3,30.33,ESE,120,0.0,0.0,57,0.04,,---,0.04,VWS V14.01,2013-03-02 03:19:00,
2013-03-01 20:24:00,38.2,24.5,30.33,ESE,120,0.0,0.0,58,0.04,,---,0.04,VWS V14.01,2013-03-02 03:24:00,
2013-03-01 20:29:00,38.0,24.3,30.33,ESE,120,0.0,0.0,57,0.04,,---,0.04,VWS V14.01,2013-03-02 03:29:00,
2013-03-01 20:34:00,37.8,24.2,30.33,ESE,120,0.0,0.0,58,0.04,,---,0.04,VWS V14.01,2013-03-02 03:34:00,
2013-03-01 20:39:00,37.7,24.6,30.33,ESE,120,0.0,0.0,59,0.04,,---,0.04,VWS V14.01,2013-03-02 03:39:00,
2013-03-01 20:44:00,37.4,24.3,30.33,ESE,120,0.0,0.0,59,0.04,,---,0.04,VWS V14.01,2013-03-02 03:44:00,
2013-03-01 20:49:00,37.3,25.3,30.33,ESE,120,0.0,0.0,61,0.04,,---,0.04,VWS V14.01,2013-03-02 03:49:00,
2013-03-01 20:54:00,37.2,25.0,30.32,ESE,120,0.0,0.0,61,0.04,,---,0.04,VWS V14.01,2013-03-02 03:54:00,
2013-03-01 20:59:00,37.0,25.1,30.32,ESE,120,0.0,0.0,62,0.04,,---,0.04,VWS V14.01,2013-03-02 03:59:00,
2013-03-01 21:04:00,36.8,25.3,30.32,ESE,120,0.0,0.0,63,0.04,,---,0.04,VWS V14.01,2013-03-02 04:04:00,
2013-03-01 21:09:00,36.6,24.8,30.32,ESE,120,0.0,0.0,62,0.04,,---,0.04,VWS V14.01,2013-03-02 04:09:00,
2013-03-01 21:14:00,36.4,25.0,30.32,ESE,120,0.0,0.0,63,0.04,,---,0.04,VWS V14.01,2013-03-02 04:14:00,
2013-03-01 21:19:00,36.3,25.1,30.32,ESE,120,0.0,0.0,64,0.04,,---,0.04,VWS V14.01,2013-03-02 04:19:00,
2013-03-01 21:24:00,36.2,25.5,30.32,ESE,120,0.0,0.0,65,0.04,,---,0.04,VWS V14.01,2013-03-02 04:24:00,
2013-03-01 21:29:00,36.2,25.7,30.32,ESE,120,0.0,0.0,65,0.04,,---,0.04,VWS V14.01,2013-03-02 04:29:00,
2013-03-01 21:34:00,36.0,25.7,30.32,ESE,120,0.0,0.0,66,0.04,,---,0.04,VWS V14.01,2013-03-02 04:34:00,
2013-03-01 21:39:00,35.8,25.8,30.32,ESE,120,0.0,0.0,67,0.04,,---,0.04,VWS V14.01,2013-03-02 04:39:00,
2013-03-01 21:44:00,35.7,25.7,30.31,ESE,120,0.0,0.0,67,0.04,,---,0.04,VWS V14.01,2013-03-02 04:44:00,
2013-03-01 21:49:00,35.5,25.8,30.31,ESE,120,0.0,0.0,68,0.04,,---,0.04,VWS V14.01,2013-03-02 04:49:00,
2013-03-01 21:54:00,35.3,25.9,30.31,ESE,120,0.0,0.0,68,0.04,,---,0.04,VWS V14.01,2013-03-02 04:54:00,
2013-03-01 22:00:00,35.1,25.9,30.31,ESE,120,0.0,0.0,69,0.04,,---,0.04,VWS V14.01,2013-03-02 05:00:00,
2013-03-01 22:01:00,35.0,25.9,30.31,ESE,120,0.0,0.0,69,0.04,,---,0.04,VWS V14.01,2013-03-02 05:01:00,
2013-03-01 22:06:00,34.8,26.2,30.31,ESE,120,0.0,0.0,70,0.04,,---,0.04,VWS V14.01,2013-03-02 05:06:00,
2013-03-01 22:11:00,34.7,26.2,30.31,ESE,120,0.0,0.0,71,0.04,,---,0.04,VWS V14.01,2013-03-02 05:11:00,
2013-03-01 22:16:00,34.6,26.1,30.31,ESE,120,0.0,0.0,71,0.04,,---,0.04,VWS V14.01,2013-03-02 05:16:00,
2013-03-01 22:21:00,34.6,26.3,30.31,ESE,120,0.0,0.0,71,0.04,,---,0.04,VWS V14.01,2013-03-02 05:21:00,
2013-03-01 22:27:00,34.5,26.2,30.31,ESE,120,0.0,0.0,72,0.04,,---,0.04,VWS V14.01,2013-03-02 05:27:00,
2013-03-01 22:32:00,34.5,26.4,30.30,ESE,120,0.0,0.0,72,0.04,,---,0.04,VWS V14.01,2013-03-02 05:32:00,
2013-03-01 22:37:00,34.4,26.1,30.31,ESE,120,0.0,0.0,71,0.04,,---,0.04,VWS V14.01,2013-03-02 05:37:00,
2013-03-01 22:42:00,34.2,25.9,30.31,ESE,120,0.0,0.0,71,0.04,,---,0.04,VWS V14.01,2013-03-02 05:42:00,
2013-03-01 22:47:00,34.1,26.0,30.31,ESE,120,0.0,0.0,72,0.04,,---,0.04,VWS V14.01,2013-03-02 05:47:00,
2013-03-01 22:52:00,34.1,25.9,30.31,ESE,120,0.0,0.0,72,0.04,,---,0.04,VWS V14.01,2013-03-02 05:52:00,
2013-03-01 22:57:00,34.0,25.9,30.31,ESE,120,0.0,0.0,72,0.04,,---,0.04,VWS V14.01,2013-03-02 05:57:00,
2013-03-01 22:59:00,33.4,14.8,30.22,North,359,0.0,0.0,46,0.01,,---,0.01,VWS V14.01,2013-03-02 05:59:00,
2013-03-01 23:02:00,33.9,25.8,30.31,ESE,120,0.0,0.0,72,0.04,,---,0.04,VWS V14.01,2013-03-02 06:02:00,
2013-03-01 23:07:00,33.9,25.9,30.30,ESE,120,0.0,0.0,72,0.04,,---,0.04,VWS V14.01,2013-03-02 06:07:00,
2013-03-01 23:12:00,33.8,25.7,30.30,ESE,120,0.0,0.0,72,0.04,,---,0.04,VWS V14.01,2013-03-02 06:12:00,
2013-03-01 23:17:00,33.7,25.6,30.30,ESE,120,0.0,0.0,72,0.04,,---,0.04,VWS V14.01,2013-03-02 06:17:00,
2013-03-01 23:22:00,33.7,25.6,30.30,WSW,239,0.0,0.0,72,0.04,,---,0.04,VWS V14.01,2013-03-02 06:22:00,
2013-03-01 23:27:00,33.7,25.5,30.30,SW,226,0.0,0.0,72,0.04,,---,0.04,VWS V14.01,2013-03-02 06:27:00,
2013-03-01 23:32:00,33.7,25.6,30.30,SSW,193,0.0,0.0,72,0.04,,---,0.04,VWS V14.01,2013-03-02 06:32:00,
2013-03-01 23:37:00,33.7,25.5,30.30,SSW,193,0.0,0.0,72,0.04,,---,0.04,VWS V14.01,2013-03-02 06:37:00,
2013-03-01 23:42:00,33.7,25.6,30.30,SSW,193,0.0,0.0,72,0.04,,---,0.04,VWS V14.01,2013-03-02 06:42:00,
2013-03-01 23:47:00,33.7,25.6,30.30,SSW,193,0.0,0.0,72,0.04,,---,0.04,VWS V14.01,2013-03-02 06:47:00,
2013-03-01 23:52:00,33.6,25.6,30.30,SSW,193,0.0,0.0,72,0.04,,---,0.04,VWS V14.01,2013-03-02 06:52:00,
2013-03-01 23:57:00,33.6,25.5,30.30,SSW,193,0.0,0.0,72,0.04,,---,0.04,VWS V14.01,2013-03-02 06:57:00,
2013-03-01 23:59:00,33.4,14.8,30.22,North,359,0.0,0.0,46,0.01,,---,0.01,VWS V14.01,2013-03-02 06:59:00,